This is the latest recevied weather packets stored in our database for station/object W0JRT-6. If no packets are shown the sender has not sent any weather packets the latest 10 day(s).
| Time | Temp. | Humidity | Pressure | Rain* | Wind** | Luminosity | Snow |
|---|---|---|---|---|---|---|---|
| 1777764005 | 18.33° C | 29% | 1013.1 hPa | 0 mm | - | - | - |
| 1777762206 | 18.89° C | 30% | 1013.2 hPa | 0 mm | - | - | - |
| 1777761608 | 18.33° C | 29% | 1013.3 hPa | 0 mm | - | - | - |
| 1777760406 | 18.89° C | 29% | 1013.6 hPa | 0 mm | - | - | - |
| 1777759805 | 18.33° C | 33% | 1013.7 hPa | 0 mm | - | - | - |
| 1777759199 | 18.33° C | 34% | 1014 hPa | 0 mm | - | - | - |
| 1777758598 | 18.33° C | 31% | 1014.1 hPa | 0 mm | - | - | - |
| 1777756809 | 17.78° C | 30% | 1014.4 hPa | 0 mm | - | - | - |
| 1777755604 | 17.78° C | 28% | 1014.6 hPa | 0 mm | - | - | - |
| 1777755003 | 17.78° C | 33% | 1014.8 hPa | 0 mm | - | - | - |
| 1777754401 | 17.78° C | 31% | 1014.8 hPa | 0 mm | - | - | - |
| 1777753805 | 17.78° C | 35% | 1015 hPa | 0 mm | - | - | - |
| 1777753204 | 17.78° C | 29% | 1015.2 hPa | 0 mm | - | - | - |
| 1777752611 | 17.22° C | 30% | 1015.2 hPa | 0 mm | - | - | - |
| 1777752005 | 17.78° C | 40% | 1015.3 hPa | 0 mm | - | - | - |
| 1777751402 | 16.67° C | 35% | 1015.4 hPa | 0 mm | - | - | - |
| 1777749049 | 16.67° C | 34% | 1015.9 hPa | 0 mm | - | - | - |
| 1777749001 | 16.67° C | 34% | 1015.9 hPa | 0 mm | - | - | - |
| 1777748400 | 16.11° C | 35% | 1016 hPa | 0 mm | - | - | - |
| 1777746000 | 16.11° C | 35% | 1016.5 hPa | 0 mm | - | - | - |
| 1777745412 | 16.11° C | 42% | 1016.6 hPa | 0 mm | - | - | - |
| 1777744803 | 16.11° C | 36% | 1016.7 hPa | 0 mm | - | - | - |
| 1777743222 | 15.56° C | 38% | 1017.3 hPa | 0 mm | - | - | - |
| 1777742998 | 15.56° C | 38% | 1017.3 hPa | 0 mm | - | - | - |
| 1777741798 | 15.56° C | 37% | 1017.4 hPa | 0 mm | - | - | - |
* Rain since midnight (hover to see other rain measurements)
** Current wind speed in m/s (hover to see current wind gust speed)